STARLINK-31955, 59939

Orbit data source: Space-Track

STARLINK-31955, 59939 is a payload satellite owned by SpaceX/Seattle (US) in LEO that was launched on Sat, 01 Jun 2024 UTC via an FALCON 9 launch vehicle from the Air Force Eastern Test Range (AFETR). Payload-class satellites include a variety of spacecraft equipped with specific instruments for various scientific and technological missions. These include communications satellites like Starlink; space stations such as the ISS; scientific satellites like the Hubble; Earth observation satellites from companies like Planet Labs, Umbra, and HawkEye 360; GPS; miniature CubeSats for education and research; and military/defense satellites.

Loading next visibility...
Identifier
59939, 2024-106T
Orbit
LEO
Country
Flag of USUS
Related business
Manufacturer
SpaceX/Seattle
Mission
Operational spacecraft
Bus & Motor
STARLINK V2M, Unknown motor
Mass
730 kg wet, ~700 kg dry
Launch date (UTC)
2024-06-01 (1 year ago)
Launch vehicle
FALCON 9
Launch site
Air Force Eastern Test Range (AFETR)
Object type
Payload
Rocket body
Debris
Shape & HBR
Unknown
Radar Cross Section
Large (>1 m²)

Expand to show TLE details & history
Last TLE update: 13 hours ago

TLE from 13 hours ago
0 STARLINK-31955
1 59939U 24106T   25260.01455112 -.00001048  00000-0 -28569-4 0  9991
2 59939  43.0008 233.1562 0000821 279.4682  80.6076 15.27588730 74007
Epoch: 2025-09-17T00:20Z
TLE epoch observation values (Epoch: 2025-09-17T00:20:57.216Z)
Latitude
-0.00009°
Longitude
-128.27887°
Altitude
482.707 km
Speed
7.626 km/s
True Right ascension
15h 32m 37s
True Declination
0° 00' 00"
Sunlit
Object was in daylight at epoch
Visualization orbit readout
Latitude
Unknown
Longitude
Unknown
Altitude
Unknown
Speed
Unknown
Apparent Right ascension
Unknown
Apparent Declination
Unknown
Sunlit
N/A
Visualization observer readout
Local Sidereal Time
06:31:38
Azimuth
Unknown
Elevation
Unknown
Doppler factor
Unknown
Orbital elements
Apogee altitude
485.531 km
Perigee altitude
484.405 km
Semi-major axis
6,863.105 km
Eccentricity
0.00008
Inclination
43.0008°
RAAN
233.1562°
Arg. of periapsis
279.4682°
True anomaly
80.61688°
Mean anomaly
80.6076°
Eccentric anomaly
80.61224°
Mean motion
3.81735 °/min
Orbital period
94.31 mins
BSTAR
-0.000028569
Loading maneuver chart data...
Computing Atmospheric mass density...
Loading historical data...
Loading historical data...
Loading historical data...
Loading historical data...
Loading historical data...
Loading historical data...
Loading historical data...

Documentation

Showing up to 5 results
|